Regional Weather Roundup
Issued by NWS

Home | Current Version | Previous Version | Graphics & Text | Print | Product List | Glossary On
Versions: 1 2 3 4 5 6 7 8 9 10 11 12 13 14 15 16 17 18 19 20 21 22 23 24 25 26 27 28 29 30 31 32 33 34 35 36 37 38 39 40 41 42 43 44 45 46 47 48 49 50
000
ASUS43 KIND 140109
RWRIN

WEATHER ROUNDUP FOR INDIANA
NATIONAL WEATHER SERVICE INDIANAPOLIS IN
900 PM EDT SUN JUL 13 2014

NOTE: "FAIR" INDICATES FEW OR NO CLOUDS BELOW 12,000 FEET WITH NO
SIGNIFICANT WEATHER AND/OR OBSTRUCTIONS TO VISIBILITY.

* - STATION DOES NOT REPORT WEATHER SUCH AS PRECIPITATION OR FOG.

+ - STATION NOT QUALITY CONTROLLED BY THE NATIONAL WEATHER SERVICE.
    USE DATA WITH CAUTION...ESPECIALLY DEWPOINT AND RELATIVE
    HUMIDITY OBSERVATIONS.

INZ001>003-010>013-019-020-140200-
NORTHWEST INDIANA

CITY           SKY/WX    TMP DP  RH WIND       PRES   REMARKS
GARY /AIRPORT/ PTCLDY    81  63  54 W9        29.89S
KNOX *+        CLEAR     76  65  70 W5        29.90S
LA PORTE +     CLEAR     75  66  73 SW5       29.90S
MICHIGAN CITY+ CLEAR     75  63  64 S3        29.88F
MONTICELLO +   CLEAR     76  68  78 SW3       29.91F
RENSSELAER +   CLEAR     75  72  88 SW3       29.91S
VALPARAISO     CLEAR     77  65  66 SW8       29.90F

$$

LMZ046-743>745-140200-
SOUTHERN LAKE MICHIGAN

STATION/POSITION TIME  TEMP WIND        PRES
                       AIR  DIR/SP/G
                 (UTC) (F)  (DEG/KT/KT) (MB)
BURNS HARBOR     0100   80  220/  8/ 11 1012.2F
MICHIGAN CITY    0100   81  210/  6/  6   N/A

$$

INZ004-005-014>016-021>024-140200-
NORTH CENTRAL INDIANA

CITY           SKY/WX    TMP DP  RH WIND       PRES   REMARKS
GOSHEN         CLEAR     77  62  59 S3        29.90F
LOGANSPORT +   CLEAR     73  64  73 W5        29.93S
PERU/GRISSOM   CLEAR     77  71  82 W5        29.92F
ROCHESTER +    CLEAR     79  68  69 SW3       29.91F
SOUTH BEND     CLEAR     78  62  57 S5        29.90S
WARSAW +       CLEAR     73  63  68 CALM      29.91F

$$

INZ006>009-017-018-025>027-140200-
NORTHEAST INDIANA

CITY           SKY/WX    TMP DP  RH WIND       PRES   REMARKS
ANGOLA *+      CLEAR     75  66  73 CALM      29.91F
AUBURN +       CLEAR     77  63  61 CALM      29.92F
FORT WAYNE     PTCLDY    79  64  60 NW3       29.93R
HUNTINGTON +   CLEAR     76  66  71 CALM      29.92S

$$

INZ028-029-035-036-043>045-051>053-140200-
WEST CENTRAL INDIANA

CITY           SKY/WX    TMP DP  RH WIND       PRES   REMARKS
GREENCASTLE +  PTCLDY    77  70  78 NW3       29.94S
LAFAYETTE      CLEAR     75  68  78 CALM      29.92S
TERRE HAUTE    CLEAR     80  70  71 NW3       29.93R

$$

INZ030>032-037>040-046>048-054>057-064-065-140200-
CENTRAL INDIANA

CITY           SKY/WX    TMP DP  RH WIND       PRES   REMARKS
CP ATTERBURY + MOCLDY    81  70  69 CALM      29.94R
INDIANAPOLIS   MOCLDY    79  68  69 NW5       29.93R
-EAGLE CREEK   MOCLDY    79  68  69 NW3       29.93R
KOKOMO *+      CLEAR     79  66  65 W3        29.92F
MARION +       PTCLDY    75  66  73 CALM      29.94S
MT COMFORT *+  PTCLDY    79  72  78 CALM      29.94R
SHELBYVILLE    PTCLDY    81  71  71 SW5       29.93R
ZIONSVILLE +   PTCLDY    79  68  69 NW5       29.94S

$$

INZ033-034-041-042-049-050-058-059-140200-
EAST CENTRAL INDIANA

CITY           SKY/WX    TMP DP  RH WIND       PRES   REMARKS
MUNCIE         CLEAR     78  68  71 NW5       29.94R

$$

INZ060-061-067>069-081>083-085>088-140200-
SOUTHWEST INDIANA

CITY           SKY/WX    TMP DP  RH WIND       PRES   REMARKS
EVANSVILLE     MOCLDY    88  72  58 SW9       29.93R
HUNTINGBURG *+ CLEAR     84  73  70 W6        29.93R
WASHINGTON +   PTCLDY    75  72  91 NE5       29.93R

$$

INZ062-063-066-070>080-084-089>092-140200-
SOUTH CENTRAL AND SOUTHEAST INDIANA

CITY           SKY/WX    TMP DP  RH WIND       PRES   REMARKS
BLOOMINGTON    LGT RAIN  76  71  85 W5        29.95R

$$




USA.gov is the U.S. government's official web portal to all federal, state and local government web resources and services.